Tracking 19709 objects as of 18-Jun-2019
HD Live streaming from Space Station
objects crossing your sky now

COSMOS 1375 DEB

Track COSMOS 1375 DEB now!
10-day predictions


NORAD ID: 17797
Int'l Code: 1982-055AP
Perigee: 942.0 km
Apogee: 948.7 km
Inclination: 65.8 °
Period: 103.8 minutes
Semi major axis: 7316 km
RCS: 0.0324 m2 (small)
Launch date: June 6, 1982
Source: Commonwealth of Independent States (former USSR) (CIS)
Launch site: PLESETSK MISSILE AND SPACE COMPLEX (PKMTR)

Note: This is SATELLITE DEBRIS
aabbcc
Your satellite tracking list
Your tracking list is empty




NASA's NSSDC Master Catalog

Two Line Element Set (TLE):
1 17797U 82055AP  19169.27098162 -.00000110  00000-0 -22979-4 0  9999
2 17797  65.8269 277.0130 0004590 339.2779  51.0736 13.87265857697171
Source of the keplerian elements: AFSPC